{"data":{"norad_id":51102,"epoch":"2026-05-25T03:53:52.444320Z","epoch_age_seconds":60770,"freshness":"FRESH","line1":"1 51102U 22004A   26145.16241255  .00000979  00000+0  71887-4 0  9990","line2":"2 51102  98.4565 165.6708 0603543 259.3823  93.8868 14.20280453224025","mean_motion":14.20280453,"eccentricity":0.0603543,"inclination_deg":98.4565,"raan_deg":165.6708,"arg_perigee_deg":259.3823,"mean_anomaly_deg":93.8868,"bstar":7.1887e-5,"rev_number":22402,"period_min":101.38842627583,"perigee_km":389.70012918971,"apogee_km":1259.1088274815,"semimajor_km":7202.5414783356,"source":"CELESTRAK","updated_at":"2026-05-25T13:37:57.379740Z"}}